User: anonymous   Login
Location: York
(31.8935°S, 116.7682°E)
Time: 16:58:06
(UTC+08:00)
Language:

Tiros 1 - Orbit

View from above orbital plane
View from above orbital plane
View from above satellite
View from above satellite

Ground track
Ground track

The orbit data is extracted from the following two-line orbital elements,

1 00029U 60002B   22267.71758648  .00000354  00000-0  82903-4 0  9992
2 00029  48.3811 354.3106 0024087 182.3534 177.7268 14.74738722340917
Epoch (UTC): 24 September 2022 17:13:19
Eccentricity: 0.0024087
inclination: 48.3811°
perigee height: 629 km
apogee height: 663 km
right ascension of ascending node: 354.3106°
argument of perigee: 182.3534°
revolutions per day: 14.74738722
mean anomaly at epoch: 177.7268°
orbit number at epoch: 34091

The dashed part of the orbit path shows where the satellite is in the earth's shadow,  

DLR